Regional Weather Roundup
Issued by NWS

Home | Current Version | Previous Version | Graphics & Text | Print | Product List | Glossary On
Versions: 1 2 3 4 5 6 7 8 9 10 11 12 13 14 15 16 17 18 19 20 21 22 23 24 25 26 27 28 29 30 31 32 33 34 35 36 37 38 39 40 41 42 43 44 45 46 47 48 49 50
000
ASUS45 KBOU 211310
RWRCO

WEATHER ROUNDUP FOR COLORADO
NATIONAL WEATHER SERVICE PUEBLO CO
700 AM MDT SAT APR 21 2018

NOTE: "FAIR" INDICATES FEW OR NO CLOUDS BELOW 12000 FEET WITH NO
SIGNIFICANT WEATHER AND/OR OBSTRUCTIONS TO VISIBILITY.

COZ001>005-013-030-031-211400-
...NORTHWEST COLORADO...

CITY           SKY/WX    TMP DP  RH WIND       PRES   REMARKS
CRAIG          MOCLDY    36  31  82 W7        30.15R
HAYDEN         CLOUDY    32  30  93 SW5       30.16R WCI  27
MEEKER         CLOUDY    36  32  85 SW7       30.15R
RABBIT EARS PA NOT AVBL
STEAMBOAT SPGS MOCLDY    32  32 100 CALM      30.14R
WALDEN         MOCLDY    27  23  86 CALM      30.13R
$$

COZ006>008-011-211400-
...WEST CENTRAL VALLEYS...

CITY           SKY/WX    TMP DP  RH WIND       PRES   REMARKS
GRAND JUNCTION CLOUDY    42  40  92 NW7       30.13R
MONTROSE       CLOUDY    38  35  89 CALM      30.17R
EAGLE          CLOUDY    33  32  96 CALM      30.15S
RIFLE          CLOUDY    37  36  96 CALM      30.15R
DELTA          NOT AVBL
NUCLA          CLOUDY    36  34  93 E6        30.18R
$$

COZ017>023-064>068-211400-
...SOUTHWEST COLORADO...

CITY           SKY/WX    TMP DP  RH WIND       PRES   REMARKS
DURANGO        CLEAR     26  19  74 NE6       30.07R WCI  19
CORTEZ         CLOUDY    44  35  70 NW12      30.11R
PAGOSA SPRINGS FAIR      28  22  78 CALM      30.09R
TELLURIDE      SNOW      29  29 100 CALM      30.16R VSB 1/4
WOLF CREEK PAS CLOUDY    18  18 100 NW7       30.14R WCI   8
$$

COZ009-010-012-014-032>034-037-058>063-211400-
...CENTRAL COLORADO...

CITY           SKY/WX    TMP DP  RH WIND       PRES   REMARKS
ASPEN          CLOUDY    31  29  92 N7        30.12R FOG     WCI  24
BUENA VISTA    MOCLDY    29  27  92 SE5       30.08R WCI  24
COPPER MTN     NOT AVBL
BERTHOUD PASS  CLOUDY    14   5  67 NW10G22   30.11R WCI   1
COTTONWOOD PAS CLOUDY    32  25  74 W5        30.08R WCI  27
GUNNISON       MOCLDY    30  28  92 NW5       30.11R WCI  25
KREMMLING      CLOUDY    37  30  75 CALM      30.13R
LEADVILLE      CLOUDY    23  21  92 N5        30.08R WCI  17
MONARCH PASS   MOCLDY    18  14  86 SW7       30.20R WCI   8
SALIDA         CLOUDY    32  29  87 CALM      30.17R
SUNLIGHT       SNOW     N/A N/A N/A MISG      30.20R VSB<1/4
WILKERSON PASS CLOUDY   N/A N/A N/A NE7       30.11R FOG
$$

COZ069>075-211400-
...SAN LUIS VALLEY/SANGRE DE CRISTO MOUNTAINS...

CITY           SKY/WX    TMP DP  RH WIND       PRES   REMARKS
ALAMOSA        CLOUDY    30  28  92 CALM      30.07R
DEL NORTE      CLOUDY    27  26  95 CALM      30.10R
LA VETA PASS   LGT SNOW  23  21  93 S6        30.19R VSB 1   WCI  16
SAGUACHE       NOT AVBL
$$

COZ035-036-038>040-211400-
...NORTHERN COLORADO FRONT RANGE...

CITY           SKY/WX    TMP DP  RH WIND       PRES   REMARKS
DENVER INTL AP LGT SNOW  32  32 100 N12       30.15R VSB 3/4 WCI  23
DMNS CITY PARK NOT AVBL
AURORA         LGT SNOW  30  30 100 N9        30.15R FOG     WCI  22
FRONT RANGE AP LGT SNOW  33  33  98 N8        30.15R WCI  27
ERIE MUNI ARPT LGT SNOW  33  33  99 N6        30.22R VSB 3/4 WCI  27
BOULDER MUN AP MIX PCPN  32  32 100 N7        30.16R WCI  26
CENTENNIAL     LGT SNOW  31  31 100 N9        30.14R VSB 3/4 WCI  23
BROOMFIELD     NOT AVBL
LOVELAND       LGT SNOW  32  32 100 N6        30.18R VSB 3/4 WCI  26
LONGMONT       FLURRIES  36  34  92 N5        30.19R
$$

COZ041-046-047-076>085-087-088-211400-
...PIKES PEAK/PALMER DIVIDE AND SOUTHERN FOOTHILLS...

CITY           SKY/WX    TMP DP  RH WIND       PRES   REMARKS
COLO. SPRINGS  CLOUDY    33  29  85 N12       30.10R WCI  24
A. F. ACADEMY  MOCLDY    30  30 100 N10       30.10R WCI  21
SCHRIEVER AFB  NOT AVBL
CHEYENNE MTN   NOT AVBL
ELLICOTT       CLOUDY   N/A N/A N/A NE5       30.10R
FALCON         CLOUDY    31  29  94 N10       30.10S WCI  22
FORT CARSON    NOT AVBL
LIMON          LGT SNOW  32  32 100 CALM      30.12R FOG
MONUMENT HILL  LGT SNOW  28  28 100 NW10      30.12R WCI  19
CANON CITY     CLOUDY    36  34  93 W6        30.11R
WALSENBURG     CLOUDY    36  36 100 N8        30.10R
TRINIDAD       LGT SNOW  34  33  96 NW8       30.09R FOG     WCI  27
$$

COZ042>045-048>051-090-091-211400-
...NORTHEAST COLORADO...

CITY           SKY/WX    TMP DP  RH WIND       PRES   REMARKS
GREELEY ARPT   LGT SNOW  32  32 100 N3        30.18R VSB 1
AKRON          LGT SNOW  31  31 100 E8        30.15R FOG     WCI  23
BURLINGTON     CLOUDY    36  36 100 E13       30.14R FOG
WRAY           FLURRIES  34  34 100 NE3       30.19R
YUMA           NOT AVBL
STERLING       NOT AVBL
HOLYOKE        LGT RAIN  37  36  93 E6        30.20R
FORT MORGAN    LGT SNOW  32  32  99 NE6       30.17R WCI  26
$$

COZ086-089-092>099-211400-
...SOUTHEAST COLORADO...

CITY           SKY/WX    TMP DP  RH WIND       PRES   REMARKS
PUEBLO         LGT RAIN  41  38  89 NE5       30.11R FOG
LA JUNTA       CLOUDY    41  39  93 NE8       30.09R
LAMAR          CLOUDY    42  39  89 E7        30.08R
SPRINGFIELD      N/A     38  38 100 NE6       30.08R
$$




USA.gov is the U.S. government's official web portal to all federal, state and local government web resources and services.